RH
67 69 72 82 85 96 89 60 53 56 59 44 42 52 65 60 63 86 76 70 78 81 78 81 86 82 80 81 79 77 77 76 81 81 75 72 74 78 76 74 72 74 73 74 75 76 76 74 76
44 50 83 88 94 97 90 56 56 56 48 43 46 53 67 72 60 74 82 73 74 77 80 82 87 84 81 80 79 77 75 76 81 80 75 72 74 77 74 74 69 72 72 72 73 74 74 74 75
40 46 83 94 96 97 80 61 56 54 46 45 50 48 58 76 65 71 71 69 74 78 80 82 88 85 81 79 80 78 75 76 80 78 77 71 72 74 75 73 67 69 70 70 72 73 74 72 72
44 71 79 92 88 74 66 53 65 78 44 42 46 59 55 53 60 66 66 69 73 81 82 84 87 81 80 79 78 77 74 79 79 76 78 71 72 74 75 72 69 65 66 68 67 72 72 72 70
68 88 93 96 82 71 60 39 46 57 46 45 46 61 64 55 56 62 65 68 82 87 84 84 86 84 80 79 78 78 76 79 77 77 76 75 70 74 74 73 72 63 61 67 68 69 68 68 69
72 83 91 84 66 46 40 34 40 46 47 51 58 61 68 57 61 64 70 79 81 88 87 84 85 85 82 78 78 78 76 78 78 76 76 76 70 72 72 68 69 69 62 65 66 67 69 72 67
77 84 77 61 60 47 37 30 50 48 50 51 48 67 63 57 62 68 75 79 80 81 84 86 83 79 79 82 79 77 77 77 77 76 76 76 74 74 72 73 69 66 66 66 65 68 67 66 66
86 84 78 70 53 44 34 31 38 42 47 41 47 74 72 58 63 67 73 77 81 82 86 93 91 86 88 84 77 75 76 77 77 76 76 75 73 66 74 76 72 67 66 65 66 66 66 65 64
64 83 83 64 47 36 30 34 33 35 46 41 44 51 50 52 60 68 75 80 82 84 88 90 92 97 97 92 78 77 78 76 74 77 76 79 91 81 69 78 69 68 69 69 67 66 66 65 66
67 74 60 44 38 32 29 39 36 42 43 51 51 48 48 53 63 68 74 87 85 87 88 87 90 95 95 77 90 92 86 92 92 92 90 95 91 85 71 73 67 64 66 71 74 71 67 70 88
54 52 40 38 35 32 30 31 33 48 57 54 57 59 54 57 62 64 68 77 79 78 80 84 87 91 89 84 96 97 98 98 96 94 95 91 79 82 78 83 73 79 74 81 72 81 84 87 91
39 34 35 36 27 28 31 31 35 39 47 47 47 49 53 58 60 60 64 72 73 74 74 77 80 84 85 90 91 92 93 95 96 97 95 94 89 81 83 76 86 85 81 89 76 86 88 89 89
34 34 29 31 27 30 29 37 48 50 48 46 47 49 51 54 53 52 54 64 65 69 68 71 73 78 77 84 86 89 89 88 86 91 95 95 92 91 89 91 83 85 79 74 75 90 95 94 92
26 22 26 23 30 29 33 43 43 50 48 51 51 54 51 54 53 54 52 63 59 60 64 66 70 69 71 78 78 77 78 85 88 94 95 92 96 97 95 93 95 96 89 88 94 94 96 96 94
17 21 26 25 33 35 33 42 52 50 48 55 54 52 54 54 52 57 57 57 53 53 56 62 66 63 70 73 72 72 75 78 85 95 93 90 94 95 94 96 94 94 93 91 94 93 94 93 93
20 22 31 23 32 35 29 46 49 48 52 61 55 53 52 64 64 58 57 53 51 50 54 59 54 63 66 66 67 71 73 76 80 94 93 89 90 92 95 95 95 95 96 96 96 98 97 96 96
28 28 27 24 22 27 28 35 45 42 52 61 60 59 59 59 68 65 62 58 46 51 53 63 58 65 70 66 75 72 73 76 85 95 92 92 88 92 96 96 94 95 96 96 95 98 95 96 97
31 28 21 27 23 22 32 31 46 43 47 49 54 50 70 76 82 80 68 63 58 49 54 62 64 74 83 76 78 79 78 83 95 92 95 92 93 83 96 97 97 96 98 97 96 94 96 94 96
23 23 24 21 21 24 26 28 45 44 54 51 53 64 80 90 88 70 70 65 69 77 69 67 80 84 81 87 76 75 74 92 92 96 93 93 93 85 95 98 97 97 95 95 93 94 95 96 98
20 20 24 26 21 25 31 36 46 44 43 54 55 64 76 80 72 67 83 76 76 72 74 72 69 86 83 89 86 69 78 88 94 94 91 95 93 92 90 96 97 97 98 96 94 94 97 96 98
17 21 22 23 24 22 28 41 50 43 44 43 50 48 76 76 72 73 83 78 75 78 81 84 84 88 97 95 94 86 79 88 95 93 95 85 90 92 95 95 97 96 98 98 95 94 94 96 95
22 16 16 18 23 30 30 44 54 50 44 47 51 78 77 77 73 71 73 63 62 76 80 90 94 96 96 94 85 77 79 82 96 95 93 92 90 92 94 94 97 97 98 95 96 92 94 95 95
16 17 18 18 23 34 36 43 41 50 47 40 59 67 81 68 54 52 62 57 75 69 80 89 94 95 96 91 75 87 77 83 93 93 92 94 94 89 91 93 97 98 98 95 97 93 97 97 96
11 19 22 30 37 43 47 42 45 44 33 37 49 48 64 74 61 56 62 75 84 76 73 83 96 96 98 95 92 90 89 94 96 95 94 86 92 95 94 92 96 98 97 97 96 95 94 95 96
19 25 35 37 45 42 58 49 38 28 34 32 31 41 44 54 71 69 72 76 81 80 75 94 96 98 97 89 91 95 94 95 95 96 96 96 97 96 96 96 99 97 95 94 95 95 95 95 92
20 22 33 38 52 50 57 42 34 28 30 24 29 34 34 48 64 60 61 73 83 79 83 88 94 92 93 90 94 97 97 98 96 96 97 98 98 96 96 97 98 97 95 95 97 96 96 96 94
22 24 20 27 60 51 54 44 34 27 23 26 28 31 37 42 45 53 62 77 81 86 89 94 98 98 95 93 98 98 98 98 96 96 97 97 96 92 95 95 95 96 98 98 97 97 96 96 95
16 16 23 30 37 36 53 51 46 35 30 33 30 36 34 39 56 66 73 74 76 78 84 91 95 98 97 97 97 96 97 96 96 97 97 96 94 96 96 92 96 97 98 98 98 97 94 95 96
16 23 23 24 32 40 65 52 38 34 34 40 42 42 44 48 58 64 67 69 73 74 81 88 91 94 96 95 92 96 96 96 97 90 92 92 94 93 98 92 94 96 98 97 99 98 95 95 94
13 16 20 24 24 38 44 38 33 33 37 37 42 45 44 50 57 64 67 70 73 76 79 84 84 85 84 87 93 95 94 95 96 93 89 93 94 94 94 97 97 96 96 97 98 97 95 94 94
Wind_Speed
6 8 2 2 7 5 8 4 3 5 5 1 4 9 8 7 1 3 15 15 18 16 13 14 18 19 19 18 18 17 17 17 16 17 17 15 15 16 15 14 13 13 13 13 13 13 13 13 14
4 7 4 4 6 4 7 4 6 3 8 8 11 7 7 5 6 16 12 19 19 15 13 12 18 19 19 19 18 17 17 18 16 17 17 15 15 16 16 15 13 13 12 12 13 12 12 13 13
5 2 5 4 4 5 4 7 10 7 7 4 5 4 5 8 13 13 15 20 18 15 13 13 19 19 19 19 18 17 17 17 17 16 18 16 15 14 16 15 13 12 12 11 11 12 12 12 12
2 5 5 7 10 16 7 6 17 10 12 13 13 7 6 6 7 13 19 19 16 13 13 17 19 21 20 19 18 18 17 16 16 16 16 16 15 14 14 14 12 12 11 12 10 11 11 11 12
4 4 5 4 12 8 5 7 16 13 8 11 9 5 7 5 16 22 20 16 15 12 13 15 20 19 19 19 17 16 17 16 16 15 15 15 14 13 14 13 13 12 10 10 11 10 10 9 11
4 3 4 4 5 10 8 8 13 13 13 13 11 10 4 19 23 18 19 17 15 13 12 14 19 19 18 18 18 16 16 15 15 14 14 14 13 12 12 11 12 11 11 9 9 9 8 8 9
6 3 1 4 8 3 6 9 12 15 11 7 10 12 11 15 17 19 17 18 16 13 11 11 12 16 19 16 17 16 15 14 14 14 13 13 14 12 11 11 10 10 9 9 8 8 7 7 8
4 4 6 4 3 5 3 4 16 15 5 14 16 8 18 18 19 18 15 16 16 14 10 7 8 9 9 9 16 16 15 14 14 14 14 12 11 11 11 11 10 10 9 8 9 8 6 6 5
2 5 6 5 0 5 9 14 9 10 17 5 7 11 22 21 19 18 15 14 12 12 11 8 7 6 6 6 10 15 16 14 14 12 13 9 4 5 9 10 12 11 11 10 8 8 8 7 7
4 5 8 8 2 3 8 21 12 6 9 6 11 14 18 20 19 19 17 14 14 14 13 12 9 9 7 7 5 5 6 4 5 5 6 5 5 5 6 9 13 11 11 10 9 8 8 7 1
4 4 6 8 10 8 6 7 6 12 1 6 19 18 21 22 17 17 17 19 19 16 12 12 12 9 8 7 5 3 3 3 4 6 6 5 3 3 3 3 4 3 7 3 5 5 3 5 4
5 6 4 3 4 12 7 4 6 6 5 12 20 17 21 21 17 14 16 15 16 16 14 13 13 12 9 6 6 6 6 5 5 4 6 4 3 2 2 3 3 4 2 4 4 2 5 6 3
5 6 7 8 8 11 13 8 8 14 17 17 19 12 15 12 12 9 16 17 16 16 15 15 14 13 11 10 7 6 6 6 7 6 5 4 4 3 1 3 4 3 3 3 3 3 4 4 5
7 7 10 6 12 9 10 12 7 8 15 15 16 14 15 10 10 6 11 18 18 17 17 16 16 13 12 11 10 8 6 6 4 4 6 7 5 4 4 4 3 2 2 3 3 3 4 4 4
3 3 3 4 9 6 11 1 8 14 14 14 15 12 8 9 10 11 10 17 19 16 18 19 17 14 13 12 10 7 7 7 6 5 8 7 6 5 5 4 2 2 2 3 3 3 3 4 3
6 5 1 6 8 6 4 8 10 14 15 11 12 12 17 13 11 9 9 16 16 14 18 17 15 15 14 11 9 7 7 7 5 5 4 7 6 6 4 4 3 2 2 2 2 3 3 3 4
5 4 3 8 11 6 5 8 10 10 13 11 12 10 6 11 12 12 8 10 18 15 17 16 16 15 13 10 7 8 8 6 5 4 5 7 6 6 5 4 3 4 2 2 1 3 3 3 4
4 3 6 6 7 8 6 8 5 10 12 12 9 8 9 12 15 10 10 7 8 14 14 16 13 13 10 9 5 4 5 5 5 6 4 5 4 6 5 4 4 4 3 2 2 3 4 3 4
7 8 8 6 4 6 9 4 12 14 5 4 6 2 11 14 13 16 12 8 8 9 13 13 12 11 10 6 8 6 5 3 2 4 6 6 5 5 6 4 4 4 4 3 3 3 4 3 3
11 17 13 3 6 5 5 3 3 11 7 9 7 9 12 10 10 20 20 7 4 9 13 15 16 15 11 6 3 4 4 3 3 3 3 5 6 6 5 5 5 5 4 4 4 4 2 2 4
10 12 5 6 3 8 0 4 4 4 5 7 4 9 13 15 18 18 19 14 5 7 10 11 13 12 6 5 3 3 4 4 3 0 1 3 5 6 6 6 5 5 4 3 3 4 5 3 1
7 9 2 5 5 3 3 3 4 4 5 6 5 4 13 19 21 20 19 15 10 8 5 7 7 8 6 6 5 8 7 6 3 3 2 4 5 6 6 6 6 5 4 5 4 4 4 3 4
11 7 2 4 4 5 8 5 8 7 9 11 7 12 15 21 20 22 10 8 8 10 11 10 9 8 9 6 6 6 5 3 3 5 4 3 4 5 5 5 4 5 4 5 5 5 5 4 3
11 2 9 7 4 4 4 4 7 4 7 7 13 14 18 19 20 13 8 3 6 7 11 12 12 8 8 7 6 7 7 6 4 4 3 4 3 3 4 5 5 5 5 5 6 6 5 5 4
3 7 4 5 6 6 5 1 11 11 7 8 9 16 16 18 17 13 9 12 10 10 10 10 11 10 11 10 8 7 7 6 6 5 4 4 3 2 4 3 4 4 5 4 4 5 5 4 4
6 9 8 4 4 6 3 5 8 7 4 5 11 11 11 11 9 13 13 12 12 12 11 11 12 12 10 10 9 6 6 4 7 6 4 3 3 3 5 2 3 2 5 4 5 4 4 5 4
3 3 9 8 2 3 3 6 11 8 9 9 4 9 12 11 12 13 14 12 12 13 13 12 11 9 11 10 7 8 8 8 7 6 4 5 4 5 4 6 5 4 3 2 5 4 5 5 5
10 6 3 4 2 3 5 5 8 7 7 5 4 10 12 11 9 11 13 14 13 12 10 11 11 12 12 10 9 8 9 9 7 5 7 6 5 5 5 6 6 6 2 4 2 4 5 5 3
2 2 6 6 6 6 3 8 7 4 6 3 4 14 13 14 14 14 12 11 12 10 10 11 11 12 10 10 10 8 8 7 6 6 6 6 5 5 7 6 6 7 6 4 3 6 6 6 5
9 11 8 7 5 3 6 7 4 7 8 1 10 10 15 14 16 15 14 13 12 13 12 13 12 12 12 12 9 10 8 6 7 6 6 6 6 5 6 7 7 6 8 7 7 9 6 6 5
Wind_Direction
156 156 169 44 56 44 315 265 6 122 89 313 126 119 103 34 341 179 137 139 141 146 152 148 142 139 138 134 133 132 127 125 119 117 112 113 115 118 113 110 100 104 106 105 103 103 107 109 111
158 146 54 45 67 22 272 295 53 98 136 136 91 83 54 85 68 118 122 143 142 146 151 153 145 144 143 141 140 135 134 132 125 121 118 120 122 120 123 115 105 109 110 109 106 104 106 110 110
190 144 80 78 130 210 192 226 113 97 154 138 94 83 82 105 105 135 130 140 139 145 149 159 148 147 148 148 143 138 139 136 127 124 125 125 127 127 125 126 116 117 118 111 113 116 113 109 113
134 31 35 44 292 260 245 133 124 133 77 95 109 64 62 132 120 136 139 138 138 142 149 159 155 153 155 152 148 141 141 143 132 132 129 130 134 128 129 130 121 124 120 119 122 121 115 112 111
66 78 89 139 216 253 214 152 154 155 136 108 108 89 119 85 120 130 137 133 134 140 152 156 158 155 158 156 151 145 147 141 140 138 138 135 137 132 136 136 130 128 136 122 130 122 118 114 107
53 101 80 259 253 214 181 118 112 120 118 105 90 95 76 126 131 135 134 133 135 137 148 156 156 158 160 159 155 149 151 146 143 138 139 139 138 140 141 138 138 139 140 140 135 131 133 127 111
111 81 137 271 257 156 106 106 123 123 131 121 128 118 132 141 137 141 138 132 134 135 141 147 154 161 163 159 155 153 153 150 147 143 144 148 146 154 149 147 148 147 147 153 156 150 155 152 138
110 99 334 254 272 81 136 81 147 143 104 123 136 152 162 147 145 137 133 136 139 136 138 138 150 153 155 162 158 157 157 158 151 151 152 151 156 153 160 159 160 153 163 173 176 173 177 184 173
148 88 249 263 352 181 125 97 102 101 136 181 187 156 153 147 143 136 135 136 139 140 148 153 151 144 144 153 168 163 160 159 162 158 156 159 160 172 168 168 174 171 181 184 193 188 188 206 203
116 145 213 211 303 321 106 125 130 111 124 70 97 119 140 149 150 146 151 151 155 155 163 166 159 159 153 164 157 150 157 160 157 160 163 164 182 192 188 190 185 188 195 194 197 203 200 207 84
178 174 188 265 251 251 115 102 96 113 234 177 143 144 155 158 161 161 160 167 166 166 167 170 165 163 164 163 157 158 158 153 162 179 186 181 192 226 216 191 190 199 209 201 205 214 207 182 188
225 233 193 282 3 103 94 90 83 209 156 143 149 146 161 164 172 172 166 169 162 168 174 172 171 169 173 158 167 176 172 176 177 194 192 182 205 241 206 204 197 195 216 194 210 222 189 205 117
244 183 219 252 108 118 101 110 121 107 132 142 142 160 166 167 177 182 177 172 168 172 176 179 175 177 178 171 177 180 184 187 189 186 191 186 200 196 147 182 193 191 195 194 220 233 200 203 183
208 211 184 165 122 132 132 140 100 143 140 150 152 174 178 188 191 169 161 172 177 177 178 181 181 182 177 182 179 188 182 192 180 175 190 199 193 193 177 182 190 226 207 194 189 204 191 202 192
216 128 126 199 158 143 115 281 109 150 172 162 162 172 185 225 196 193 161 180 180 183 178 183 182 178 179 188 184 183 188 183 179 193 194 193 191 183 178 166 196 220 245 257 174 197 196 185 180
298 70 281 248 141 177 127 251 141 176 146 161 159 177 186 192 248 212 179 165 186 181 182 185 180 178 182 187 182 184 188 175 174 170 178 193 186 180 200 173 189 224 238 219 171 188 176 195 186
333 205 229 302 195 153 172 242 152 169 160 181 187 176 150 193 211 238 197 166 182 182 179 182 182 177 179 183 179 172 163 156 170 169 191 194 185 172 188 197 201 225 227 250 196 191 181 179 217
244 215 241 224 215 178 172 237 147 157 175 187 193 157 77 51 3 303 270 201 178 182 185 178 177 167 174 174 161 130 141 141 165 174 191 193 195 195 193 208 214 216 227 250 216 192 207 198 185
272 263 246 238 255 147 215 206 181 184 161 120 201 83 114 87 65 323 263 247 166 171 164 173 161 174 163 166 163 170 175 164 129 166 186 190 207 214 184 210 223 208 218 220 204 176 199 243 149
269 284 252 311 199 123 242 210 202 166 151 193 174 201 143 147 162 245 256 265 218 189 171 174 178 172 178 167 189 165 154 138 136 131 175 190 193 200 198 214 230 207 218 233 208 190 185 217 163
274 268 205 187 160 53 277 52 167 204 161 197 195 201 164 168 186 226 207 225 218 204 180 176 171 165 132 130 116 80 68 46 78 272 210 227 213 208 207 211 219 222 191 199 202 205 187 213 219
268 255 36 110 89 122 353 269 273 273 232 195 175 157 166 175 204 212 226 202 202 210 174 150 134 121 118 163 161 162 160 176 177 246 206 241 234 230 217 216 214 207 183 216 215 212 195 165 207
244 255 169 176 103 95 353 83 264 162 221 233 177 185 186 194 203 212 225 190 167 178 161 152 148 160 153 188 167 154 164 178 159 204 235 259 255 234 236 226 205 202 195 207 210 202 191 184 177
236 114 39 41 73 55 258 116 286 268 234 144 190 211 185 201 225 227 255 166 144 164 166 160 156 155 164 188 173 176 176 180 197 218 216 243 254 258 243 235 205 204 207 221 211 200 190 204 210
158 64 9 5 6 215 262 205 238 255 240 228 220 194 187 194 208 220 214 196 186 179 171 144 151 164 178 183 186 186 193 195 210 219 203 229 258 279 295 286 244 205 206 204 204 179 196 211 203
191 146 149 200 212 255 282 226 256 269 310 248 215 190 177 150 195 206 197 183 190 180 163 151 165 176 180 183 192 183 192 198 218 219 211 223 219 226 230 152 227 227 304 248 198 182 193 190 197
191 141 190 129 60 84 263 279 305 272 298 357 283 179 187 189 195 202 173 152 154 160 164 157 165 165 187 185 180 195 198 209 222 216 212 229 210 222 228 156 136 115 342 296 213 182 194 178 186
150 169 88 20 192 232 298 296 235 317 333 300 58 175 191 176 147 160 157 159 159 161 155 152 163 172 183 179 192 201 203 215 222 197 213 215 226 210 161 155 148 143 142 308 274 205 195 185 197
37 107 60 117 134 148 166 259 204 210 230 178 156 164 165 163 165 161 160 157 160 147 151 164 170 176 175 184 195 198 201 207 181 187 203 211 233 183 160 175 155 158 163 217 286 242 179 191 203
174 187 136 132 257 207 165 265 320 171 258 206 130 162 167 166 161 166 162 159 160 162 165 175 181 180 184 186 185 199 199 175 171 183 197 212 206 181 158 169 189 184 182 189 220 228 178 184 204